This demonstration page uses our WeatherBlox Daily Observations layout. Learn more.

38.89511, -77.03637

Hourly Observations for January 22, 2018

Temp ( °F °C ) Dew Point ( °F °C ) Humidity (%) Winds ( mph kmh ) Pressure ( in mb ) Visibility ( mi km ) Precip ( " mm )
12:52 am 00:52 Cloudy 50 10 40 4.4 68 68 S 9 15 30.14 1021 10 16.0934 0 0.0254
1:52 am 01:52 Cloudy 53 11.7 41 5 64 64 S 8 13 30.14 1021 10 16.0934 0 0.0254
2:52 am 02:52 Cloudy 49 9.4 39 3.9 69 69 S 7 11 30.13 1020 10 16.0934 0 0
3:52 am 03:52 Cloudy 52 11.1 41 5 66 66 S 7 11 30.12 1020 10 16.0934 0 0
4:52 am 04:52 Cloudy 51 10.6 41 5 69 69 SSW 5 7 30.12 1020 10 16.0934 0 0
5:52 am 05:52 Cloudy 50 10 41 5 71 71 Calm 30.12 1020 10 16.0934 0 0
6:52 am 06:52 Cloudy 51 10.6 41 5 69 69 Calm 30.13 1020 10 16.0934 0 0
7:52 am 07:52 Cloudy 49 9.4 41 5 74 74 S 6 9 30.14 1021 10 16.0934 0 0.0254
8:52 am 08:52 Mostly Cloudy 53 11.7 43 6.1 69 69 S 7 11 30.14 1021 10 16.0934 0 0.0254
9:52 am 09:52 Cloudy 54 12.2 42 5.6 64 64 S 7 11 30.16 1021 10 16.0934 0 0
10:52 am 10:52 Cloudy 56 13.3 42 5.6 60 60 S 10 17 30.15 1021 10 16.0934 0 0
11:52 am 11:52 Cloudy 59 15 43 6.1 56 56 S 8 13 30.12 1020 10 16.0934 0 0
12:52 pm 12:52 Cloudy 60 15.6 43 6.1 53 53 S 9 15 30.08 1019 10 16.0934 0 0
1:52 pm 13:52 Cloudy 61 16.1 43 6.1 52 52 S 10 17 30.06 1018 10 16.0934 0 0
2:52 pm 14:52 Cloudy 63 17.2 42 5.6 47 47 S 10 17 30.04 1017 10 16.0934 0 0
3:52 pm 15:52 Mostly Cloudy 59 15 41 5 51 51 S 14 22 30.02 1017 10 16.0934 0 0
4:52 pm 16:52 Mostly Cloudy 58 14.4 42 5.6 56 56 S 13 20 30.02 1017 10 16.0934 0 0
5:52 pm 17:52 Cloudy 57 13.9 42 5.6 58 58 S 9 15 30.02 1017 10 16.0934 0 0
6:52 pm 18:52 Cloudy 57 13.9 43 6.1 60 60 SSE 8 13 30.02 1017 10 16.0934 0 0
7:52 pm 19:52 Cloudy 55 12.8 43 6.1 64 64 SSE 8 13 30 1016 10 16.0934 0 0
8:52 pm 20:52 Mostly Cloudy 53 11.7 43 6.1 69 69 S 7 11 29.98 1015 10 16.0934 0 0
9:52 pm 21:52 Cloudy 51 10.6 43 6.1 74 74 S 8 13 29.99 1016 10 16.0934 0 0
10:52 pm 22:52 Cloudy 51 10.6 43 6.1 74 74 S 10 17 29.96 1015 10 16.0934 0 0
11:52 pm 23:52 Cloudy 51 10.6 43 6.1 74 74 S 12 19 29.95 1014 10 16.0934 0 0

Powered by AerisWeather